| time (UTC) | temp F | wind direction | speed knots | gust knots | rain 1hr in | rain 24hr in | rain mn in | humidity % | barometer mb |
| 20260901091634 | 75 | 0 | 0.0 | 0.0 | 0.00 | 0.00 | 0.00 | 77 | 1022.8 |
| 20260901091134 | 75 | 0 | 0.0 | 0.0 | 0.00 | 0.00 | 0.00 | 77 | 1022.8 |
| 20260901090634 | 75 | 0 | 0.0 | 0.0 | 0.00 | 0.00 | 0.00 | 77 | 1022.9 |
| 20260901090135 | 75 | 0 | 0.0 | 0.0 | 0.00 | 0.00 | 0.00 | 78 | 1022.8 |
| 20260901085634 | 75 | 0 | 0.0 | 0.0 | 0.00 | 0.00 | 0.00 | 78 | 1022.8 |
| 20260901085134 | 75 | 0 | 0.0 | 0.0 | 0.00 | 0.00 | 0.00 | 79 | 1022.9 |
| 20260901084635 | 75 | 0 | 0.0 | 0.0 | 0.00 | 0.00 | 0.00 | 79 | 1022.8 |
| 20260901084134 | 75 | 0 | 0.0 | 0.0 | 0.00 | 0.00 | 0.00 | 78 | 1022.8 |
| 20260901083634 | 75 | 0 | 0.0 | 0.0 | 0.00 | 0.00 | 0.00 | 78 | 1022.8 |
| 20260901083134 | 75 | 0 | 0.0 | 0.0 | 0.00 | 0.00 | 0.00 | 78 | 1022.8 |
| 20260901082635 | 75 | 0 | 0.0 | 3.5 | 0.00 | 0.00 | 0.00 | 78 | 1022.7 |
| 20260901082135 | 75 | 0 | 0.0 | 4.3 | 0.00 | 0.00 | 0.00 | 77 | 1022.8 |
| 20260901081634 | 76 | 313 | 2.6 | 4.3 | 0.00 | 0.00 | 0.00 | 76 | 1022.9 |
| 20260901081135 | 76 | 0 | 0.0 | 0.0 | 0.00 | 0.00 | 0.00 | 75 | 1022.9 |
| 20260901080634 | 76 | 0 | 0.0 | 0.0 | 0.00 | 0.00 | 0.00 | 75 | 1022.8 |
| 20260901080134 | 76 | 0 | 0.0 | 0.0 | 0.00 | 0.00 | 0.00 | 76 | 1022.9 |
| 20260901075634 | 76 | 0 | 0.0 | 0.0 | 0.00 | 0.00 | 0.00 | 75 | 1023.0 |
| 20260901075134 | 76 | 0 | 0.0 | 0.0 | 0.00 | 0.00 | 0.00 | 75 | 1022.9 |
| 20260901074634 | 76 | 0 | 0.0 | 0.0 | 0.00 | 0.00 | 0.00 | 75 | 1022.9 |
| 20260901074135 | 76 | 0 | 0.0 | 0.0 | 0.00 | 0.00 | 0.00 | 75 | 1023.0 |
| 20260901073634 | 76 | 0 | 0.0 | 1.7 | 0.00 | 0.00 | 0.00 | 75 | 1023.0 |
| 20260901073134 | 76 | 0 | 0.0 | 2.6 | 0.00 | 0.00 | 0.00 | 75 | 1023.1 |
| 20260901072635 | 76 | 313 | 0.9 | 2.6 | 0.00 | 0.00 | 0.00 | 75 | 1023.0 |
| 20260901072135 | 76 | 313 | 0.9 | 4.3 | 0.00 | 0.00 | 0.00 | 75 | 1023.1 |
| 20260901071635 | 76 | 313 | 1.7 | 4.3 | 0.00 | 0.00 | 0.00 | 75 | 1023.2 |
| 20260901071134 | 76 | 313 | 1.7 | 4.3 | 0.00 | 0.00 | 0.00 | 75 | 1023.2 |
| 20260901070635 | 76 | 313 | 1.7 | 4.3 | 0.00 | 0.00 | 0.00 | 75 | 1023.3 |
| 20260901070308 | 77 | 313 | 1.7 | 4.3 | 0.00 | 0.00 | 0.00 | 75 | 1023.3 |
| 20260901070134 | 77 | 313 | 1.7 | 4.3 | 0.00 | 0.00 | 0.00 | 75 | 1023.3 |
| 20260901065634 | 77 | 313 | 1.7 | 3.5 | 0.00 | 0.00 | 0.00 | 74 | 1023.2 |
| 20260901065134 | 77 | 0 | 0.0 | 4.3 | 0.00 | 0.00 | 0.00 | 74 | 1023.3 |
| 20260901064634 | 77 | 0 | 0.0 | 4.3 | 0.00 | 0.00 | 0.00 | 74 | 1023.4 |
| 20260901064134 | 77 | 313 | 0.9 | 2.6 | 0.00 | 0.00 | 0.00 | 75 | 1023.4 |
| 20260901063634 | 77 | 313 | 1.7 | 2.6 | 0.00 | 0.00 | 0.00 | 74 | 1023.5 |
| 20260901063134 | 77 | 313 | 1.7 | 4.3 | 0.00 | 0.00 | 0.00 | 74 | 1023.5 |
| 20260901062635 | 77 | 313 | 1.7 | 4.3 | 0.00 | 0.00 | 0.00 | 74 | 1023.4 |
| 20260901062136 | 77 | 313 | 1.7 | 4.3 | 0.00 | 0.00 | 0.00 | 74 | 1023.4 |
| 20260901061635 | 77 | 313 | 0.9 | 5.2 | 0.00 | 0.00 | 0.00 | 74 | 1023.3 |
| 20260901061138 | 77 | 313 | 1.7 | 5.2 | 0.00 | 0.00 | 0.00 | 74 | 1023.4 |
| 20260901060635 | 77 | 313 | 1.7 | 4.3 | 0.00 | 0.00 | 0.00 | 74 | 1023.5 |
| 20260901060137 | 77 | 313 | 2.6 | 3.5 | 0.00 | 0.00 | 0.00 | 73 | 1023.5 |
| 20260901055635 | 77 | 313 | 1.7 | 3.5 | 0.00 | 0.00 | 0.00 | 73 | 1023.5 |
| 20260901055133 | 78 | 313 | 1.7 | 5.2 | 0.00 | 0.00 | 0.00 | 72 | 1023.6 |
| 20260901054635 | 77 | 0 | 0.0 | 5.2 | 0.00 | 0.00 | 0.00 | 72 | 1023.7 |
| 20260901054135 | 77 | 0 | 0.0 | 5.2 | 0.00 | 0.00 | 0.00 | 73 | 1023.7 |
| 20260901053635 | 77 | 313 | 0.9 | 5.2 | 0.00 | 0.00 | 0.00 | 74 | 1023.7 |
| 20260901053135 | 77 | 313 | 1.7 | 3.5 | 0.00 | 0.00 | 0.00 | 74 | 1023.7 |
| 20260901052634 | 77 | 313 | 1.7 | 4.3 | 0.00 | 0.00 | 0.00 | 74 | 1023.7 |
| 20260901052140 | 77 | 313 | 0.9 | 4.3 | 0.00 | 0.00 | 0.00 | 74 | 1023.8 |
| 20260901051634 | 77 | 313 | 0.9 | 4.3 | 0.00 | 0.00 | 0.00 | 74 | 1023.7 |
| 20260901051138 | 78 | 0 | 0.0 | 3.5 | 0.00 | 0.00 | 0.00 | 74 | 1023.6 |
| 20260901050637 | 78 | 0 | 0.0 | 3.5 | 0.00 | 0.00 | 0.00 | 74 | 1023.8 |
| 20260901050135 | 78 | 313 | 0.9 | 2.6 | 0.00 | 0.00 | 0.00 | 74 | 1023.7 |
| 20260901045635 | 78 | 0 | 0.0 | 2.6 | 0.00 | 0.00 | 0.00 | 74 | 1023.7 |
| 20260901045135 | 77 | 0 | 0.0 | 2.6 | 0.00 | 0.00 | 0.00 | 75 | 1023.7 |
| 20260901044635 | 77 | 0 | 0.0 | 4.3 | 0.00 | 0.00 | 0.00 | 75 | 1023.6 |
| 20260901044135 | 77 | 313 | 0.9 | 4.3 | 0.00 | 0.00 | 0.00 | 75 | 1023.6 |
| 20260901043634 | 78 | 313 | 1.7 | 4.3 | 0.00 | 0.00 | 0.00 | 75 | 1023.6 |
| 20260901043136 | 78 | 313 | 0.9 | 4.3 | 0.00 | 0.00 | 0.00 | 74 | 1023.6 |
| 20260901042635 | 78 | 0 | 0.0 | 4.3 | 0.00 | 0.00 | 0.00 | 74 | 1023.6 |
| 20260901042522 | 78 | 0 | 0.0 | 3.5 | 0.00 | 0.00 | 0.00 | 74 | 1023.7 |
| 20260901042134 | 78 | 0 | 0.0 | 4.3 | 0.00 | 0.00 | 0.00 | 73 | 1023.6 |
| 20260901041633 | 78 | 0 | 0.0 | 3.5 | 0.00 | 0.00 | 0.00 | 74 | 1023.7 |
| 20260901041136 | 78 | 0 | 0.0 | 0.9 | 0.00 | 0.00 | 0.00 | 74 | 1023.6 |
| 20260901040635 | 78 | 0 | 0.0 | 0.9 | 0.00 | 0.00 | 0.00 | 73 | 1023.5 |
| 20260901040134 | 78 | 0 | 0.0 | 1.7 | 0.00 | 0.00 | 0.00 | 73 | 1023.6 |
| 20260901035634 | 78 | 0 | 0.0 | 1.7 | 0.00 | 0.00 | 0.00 | 74 | 1023.6 |
| 20260901035134 | 78 | 0 | 0.0 | 0.9 | 0.00 | 0.00 | 0.00 | 74 | 1023.6 |
| 20260901034633 | 78 | 0 | 0.0 | 1.7 | 0.00 | 0.00 | 0.00 | 74 | 1023.6 |
| 20260901034134 | 78 | 0 | 0.0 | 2.6 | 0.00 | 0.00 | 0.00 | 74 | 1023.6 |
| 20260901033633 | 78 | 0 | 0.0 | 2.6 | 0.00 | 0.00 | 0.00 | 75 | 1023.6 |
| 20260901033134 | 78 | 0 | 0.0 | 4.3 | 0.00 | 0.00 | 0.00 | 75 | 1023.6 |
| 20260901032633 | 78 | 313 | 0.9 | 4.3 | 0.00 | 0.00 | 0.00 | 75 | 1023.6 |
| 20260901032133 | 78 | 0 | 0.0 | 3.5 | 0.00 | 0.00 | 0.00 | 76 | 1023.6 |
| 20260901031633 | 78 | 313 | 0.9 | 3.5 | 0.00 | 0.00 | 0.00 | 77 | 1023.7 |
| 20260901031133 | 77 | 313 | 0.9 | 4.3 | 0.00 | 0.00 | 0.00 | 77 | 1023.8 |
| 20260901030633 | 77 | 313 | 1.7 | 7.0 | 0.00 | 0.00 | 0.00 | 77 | 1023.8 |
| 20260901030134 | 77 | 313 | 1.7 | 7.0 | 0.00 | 0.00 | 0.00 | 79 | 1023.9 |
| 20260901025634 | 77 | 313 | 1.7 | 5.2 | 0.00 | 0.00 | 0.00 | 80 | 1023.8 |
| 20260901025133 | 77 | 313 | 1.7 | 4.3 | 0.00 | 0.00 | 0.00 | 79 | 1023.8 |
| 20260901024638 | 78 | 313 | 1.7 | 4.3 | 0.00 | 0.00 | 0.00 | 79 | 1023.7 |
| 20260901024133 | 78 | 313 | 1.7 | 3.5 | 0.00 | 0.00 | 0.00 | 78 | 1023.7 |
| 20260901023618 | 78 | 313 | 1.7 | 4.3 | 0.00 | 0.00 | 0.00 | 77 | 1023.7 |
| 20260901023024 | 78 | 313 | 1.7 | 3.5 | 0.00 | 0.00 | 0.00 | 76 | 1023.7 |
| 20260901022158 | 78 | 313 | 1.7 | 4.3 | 0.00 | 0.00 | 0.00 | 73 | 1023.6 |
| 20260901021657 | 78 | 313 | 1.7 | 4.3 | 0.00 | 0.00 | 0.00 | 72 | 1023.6 |
| 20260901021158 | 78 | 313 | 2.6 | 4.3 | 0.00 | 0.00 | 0.00 | 73 | 1023.6 |
| 20260901020657 | 78 | 313 | 1.7 | 7.0 | 0.00 | 0.00 | 0.00 | 76 | 1023.5 |
| 20260901020157 | 78 | 313 | 2.6 | 7.0 | 0.00 | 0.00 | 0.00 | 77 | 1023.5 |
| 20260901015657 | 78 | 313 | 2.6 | 5.2 | 0.00 | 0.00 | 0.00 | 76 | 1023.4 |
| 20260901015205 | 78 | 313 | 3.5 | 5.2 | 0.00 | 0.00 | 0.00 | 76 | 1023.4 |
| 20260901014657 | 78 | 313 | 3.5 | 5.2 | 0.00 | 0.00 | 0.00 | 75 | 1023.4 |
| 20260901014158 | 78 | 313 | 2.6 | 5.2 | 0.00 | 0.00 | 0.00 | 75 | 1023.4 |
| 20260901013657 | 78 | 313 | 2.6 | 5.2 | 0.00 | 0.00 | 0.00 | 75 | 1023.3 |
| 20260901013158 | 77 | 313 | 2.6 | 7.0 | 0.00 | 0.00 | 0.00 | 79 | 1023.3 |
| 20260901012658 | 77 | 313 | 3.5 | 7.0 | 0.00 | 0.00 | 0.00 | 80 | 1023.3 |
| 20260901012158 | 77 | 313 | 1.7 | 7.0 | 0.00 | 0.00 | 0.00 | 81 | 1023.2 |
| 20260901011657 | 78 | 313 | 2.6 | 7.0 | 0.00 | 0.00 | 0.00 | 78 | 1023.4 |
| 20260901011158 | 79 | 313 | 4.3 | 7.0 | 0.00 | 0.00 | 0.00 | 75 | 1023.3 |
| 20260901010657 | 79 | 313 | 2.6 | 7.0 | 0.00 | 0.00 | 0.00 | 72 | 1023.2 |
| 20260901010158 | 79 | 313 | 2.6 | 7.0 | 0.00 | 0.00 | 0.00 | 71 | 1023.1 |
| 20260901005657 | 79 | 313 | 0.9 | 7.0 | 0.00 | 0.00 | 0.00 | 71 | 1023.1 |
| 20260901005158 | 79 | 313 | 1.7 | 7.0 | 0.00 | 0.00 | 0.00 | 71 | 1023.0 |
| 20260901004659 | 79 | 313 | 0.9 | 3.5 | 0.00 | 0.00 | 0.00 | 71 | 1023.0 |
| 20260901004159 | 79 | 0 | 0.0 | 3.5 | 0.00 | 0.00 | 0.00 | 71 | 1023.0 |
| 20260901003339 | 79 | 313 | 0.9 | 5.2 | 0.00 | 0.00 | 0.00 | 73 | 1022.9 |
| 20260901002839 | 78 | 313 | 0.9 | 5.2 | 0.00 | 0.00 | 0.00 | 74 | 1022.9 |
| 20260901002338 | 78 | 313 | 1.7 | 5.2 | 0.00 | 0.00 | 0.00 | 76 | 1022.9 |
| 20260901001838 | 78 | 313 | 1.7 | 7.0 | 0.00 | 0.00 | 0.00 | 78 | 1022.9 |
| 20260901001338 | 78 | 313 | 2.6 | 7.0 | 0.00 | 0.00 | 0.00 | 78 | 1022.8 |
| 20260901000840 | 79 | 313 | 2.6 | 5.2 | 0.00 | 0.00 | 0.00 | 78 | 1022.8 |
| 20260901000339 | 79 | 313 | 1.7 | 4.3 | 0.00 | 0.00 | 0.00 | 79 | 1022.8 |
| 20260831235838 | 79 | 313 | 0.9 | 4.3 | 0.00 | 0.00 | 0.00 | 77 | 1022.7 |
| 20260831235340 | 80 | 0 | 0.0 | 2.6 | 0.00 | 0.00 | 0.00 | 75 | 1022.7 |
| 20260831234840 | 80 | 313 | 0.9 | 4.3 | 0.00 | 0.00 | 0.00 | 74 | 1022.7 |
| 20260831234338 | 80 | 313 | 0.9 | 4.3 | 0.00 | 0.00 | 0.00 | 76 | 1022.7 |
| 20260831233838 | 80 | 0 | 0.0 | 1.7 | 0.00 | 0.00 | 0.00 | 74 | 1022.7 |
| 20260831233338 | 81 | 0 | 0.0 | 0.0 | 0.00 | 0.00 | 0.00 | 72 | 1022.7 |
| 20260831232838 | 81 | 0 | 0.0 | 0.0 | 0.00 | 0.00 | 0.00 | 72 | 1022.7 |
| 20260831232338 | 81 | 0 | 0.0 | 0.0 | 0.00 | 0.00 | 0.00 | 71 | 1022.7 |
| 20260831231838 | 81 | 0 | 0.0 | 0.0 | 0.00 | 0.00 | 0.00 | 72 | 1022.8 |
| 20260831231339 | 82 | 0 | 0.0 | 0.0 | 0.00 | 0.00 | 0.00 | 70 | 1022.9 |
| 20260831230838 | 82 | 0 | 0.0 | 0.0 | 0.00 | 0.00 | 0.00 | 71 | 1022.9 |
| 20260831230338 | 82 | 0 | 0.0 | 0.0 | 0.00 | 0.00 | 0.00 | 70 | 1023.0 |
| 20260831225841 | 82 | 0 | 0.0 | 0.0 | 0.00 | 0.00 | 0.00 | 70 | 1022.9 |
| 20260831225338 | 83 | 0 | 0.0 | 0.9 | 0.00 | 0.00 | 0.00 | 69 | 1023.0 |
| 20260831224838 | 83 | 0 | 0.0 | 0.9 | 0.00 | 0.00 | 0.00 | 67 | 1023.0 |
| 20260831224338 | 83 | 0 | 0.0 | 0.0 | 0.00 | 0.00 | 0.00 | 67 | 1022.9 |
| 20260831223838 | 83 | 0 | 0.0 | 0.0 | 0.00 | 0.00 | 0.00 | 67 | 1023.0 |
| 20260831223338 | 83 | 0 | 0.0 | 0.0 | 0.00 | 0.00 | 0.00 | 65 | 1023.0 |
| 20260831222838 | 83 | 0 | 0.0 | 0.0 | 0.00 | 0.00 | 0.00 | 64 | 1023.0 |
| 20260831222338 | 83 | 0 | 0.0 | 0.0 | 0.00 | 0.00 | 0.00 | 64 | 1023.0 |
| 20260831221838 | 83 | 0 | 0.0 | 0.0 | 0.00 | 0.00 | 0.00 | 64 | 1023.0 |
| 20260831221338 | 84 | 0 | 0.0 | 0.0 | 0.00 | 0.00 | 0.00 | 64 | 1022.0 |
| 20260831220838 | 84 | 0 | 0.0 | 0.9 | 0.00 | 0.00 | 0.00 | 65 | 1022.1 |
| 20260831220338 | 84 | 0 | 0.0 | 1.7 | 0.00 | 0.00 | 0.00 | 65 | 1022.1 |
| 20260831215838 | 84 | 0 | 0.0 | 1.7 | 0.00 | 0.00 | 0.00 | 66 | 1022.1 |
| 20260831215338 | 84 | 0 | 0.0 | 1.7 | 0.00 | 0.00 | 0.00 | 64 | 1022.1 |
| 20260831214838 | 85 | 0 | 0.0 | 2.6 | 0.00 | 0.00 | 0.00 | 61 | 1022.1 |
| 20260831214338 | 85 | 0 | 0.0 | 2.6 | 0.00 | 0.00 | 0.00 | 64 | 1022.1 |
| 20260831213839 | 85 | 0 | 0.0 | 2.6 | 0.00 | 0.00 | 0.00 | 63 | 1022.2 |
| 20260831213341 | 85 | 0 | 0.0 | 0.9 | 0.00 | 0.00 | 0.00 | 61 | 1022.1 |
| 20260831212838 | 85 | 0 | 0.0 | 0.0 | 0.00 | 0.00 | 0.00 | 62 | 1022.2 |
| 20260831212340 | 85 | 0 | 0.0 | 0.0 | 0.00 | 0.00 | 0.00 | 60 | 1022.3 |
| 20260831211838 | 85 | 0 | 0.0 | 0.9 | 0.00 | 0.00 | 0.00 | 63 | 1022.3 |
| 20260831211338 | 85 | 0 | 0.0 | 2.6 | 0.00 | 0.00 | 0.00 | 63 | 1022.3 |
| 20260831210838 | 85 | 0 | 0.0 | 2.6 | 0.00 | 0.00 | 0.00 | 62 | 1022.3 |
| 20260831210338 | 86 | 313 | 0.9 | 2.6 | 0.00 | 0.00 | 0.00 | 61 | 1022.3 |
| 20260831205838 | 87 | 0 | 0.0 | 2.6 | 0.00 | 0.00 | 0.00 | 60 | 1022.3 |
| 20260831205340 | 88 | 0 | 0.0 | 0.9 | 0.00 | 0.00 | 0.00 | 56 | 1022.3 |
| 20260831204838 | 88 | 0 | 0.0 | 0.9 | 0.00 | 0.00 | 0.00 | 56 | 1022.4 |
| 20260831204338 | 88 | 0 | 0.0 | 1.7 | 0.00 | 0.00 | 0.00 | 55 | 1022.5 |
| 20260831203838 | 88 | 0 | 0.0 | 1.7 | 0.00 | 0.00 | 0.00 | 56 | 1022.5 |
| 20260831203338 | 88 | 0 | 0.0 | 1.7 | 0.00 | 0.00 | 0.00 | 55 | 1022.4 |
| 20260831202838 | 88 | 0 | 0.0 | 1.7 | 0.00 | 0.00 | 0.00 | 54 | 1022.4 |
| 20260831202338 | 87 | 0 | 0.0 | 1.7 | 0.00 | 0.00 | 0.00 | 55 | 1022.5 |
| 20260831201839 | 87 | 0 | 0.0 | 1.7 | 0.00 | 0.00 | 0.00 | 57 | 1022.6 |
| 20260831201338 | 87 | 0 | 0.0 | 1.7 | 0.00 | 0.00 | 0.00 | 55 | 1022.7 |
| 20260831200839 | 87 | 0 | 0.0 | 1.7 | 0.00 | 0.00 | 0.00 | 59 | 1022.7 |
| 20260831200338 | 87 | 0 | 0.0 | 2.6 | 0.00 | 0.00 | 0.00 | 59 | 1022.8 |
| 20260831195838 | 87 | 0 | 0.0 | 2.6 | 0.00 | 0.00 | 0.00 | 61 | 1022.8 |
| 20260831195026 | 86 | 0 | 0.0 | 2.6 | 0.00 | 0.00 | 0.00 | 59 | 1022.9 |
| 20260831194525 | 85 | 0 | 0.0 | 1.7 | 0.00 | 0.00 | 0.00 | 65 | 1023.0 |
| 20260831194025 | 85 | 0 | 0.0 | 1.7 | 0.00 | 0.00 | 0.00 | 62 | 1022.9 |
| 20260831193525 | 84 | 0 | 0.0 | 0.9 | 0.00 | 0.00 | 0.00 | 64 | 1022.9 |
| 20260831193026 | 84 | 0 | 0.0 | 0.9 | 0.00 | 0.00 | 0.00 | 65 | 1023.0 |
| 20260831192525 | 84 | 0 | 0.0 | 1.7 | 0.00 | 0.00 | 0.00 | 64 | 1023.0 |
| 20260831192028 | 84 | 0 | 0.0 | 1.7 | 0.00 | 0.00 | 0.00 | 63 | 1023.1 |
| 20260831191525 | 83 | 0 | 0.0 | 1.7 | 0.00 | 0.00 | 0.00 | 67 | 1023.2 |
| 20260831191025 | 82 | 0 | 0.0 | 1.7 | 0.00 | 0.00 | 0.00 | 67 | 1023.1 |
| 20260831190526 | 82 | 0 | 0.0 | 0.9 | 0.00 | 0.00 | 0.00 | 68 | 1023.1 |
| 20260831190025 | 82 | 0 | 0.0 | 0.9 | 0.00 | 0.00 | 0.00 | 69 | 1023.2 |
| 20260831185528 | 81 | 0 | 0.0 | 0.0 | 0.00 | 0.00 | 0.00 | 68 | 1023.3 |
| 20260831185025 | 81 | 0 | 0.0 | 2.6 | 0.00 | 0.00 | 0.00 | 69 | 1023.3 |
| 20260831184526 | 81 | 0 | 0.0 | 2.6 | 0.00 | 0.00 | 0.00 | 68 | 1023.4 |
| 20260831184026 | 81 | 0 | 0.0 | 1.7 | 0.00 | 0.00 | 0.00 | 71 | 1023.4 |
| 20260831183526 | 80 | 0 | 0.0 | 0.0 | 0.00 | 0.00 | 0.00 | 70 | 1023.4 |
| 20260831183025 | 79 | 0 | 0.0 | 0.0 | 0.00 | 0.00 | 0.00 | 69 | 1023.5 |
| 20260831182525 | 78 | 0 | 0.0 | 1.7 | 0.00 | 0.00 | 0.00 | 69 | 1023.6 |
| 20260831182025 | 77 | 0 | 0.0 | 7.0 | 0.00 | 0.00 | 0.00 | 67 | 1023.6 |
| 20260831181525 | 77 | 313 | 0.9 | 7.8 | 0.00 | 0.00 | 0.00 | 67 | 1023.7 |
| 20260831181025 | 76 | 313 | 2.6 | 8.7 | 0.00 | 0.00 | 0.00 | 77 | 1023.8 |
| 20260831180525 | 77 | 313 | 3.5 | 8.7 | 0.00 | 0.00 | 0.00 | 79 | 1023.7 |
| 20260831180026 | 78 | 311 | 4.3 | 9.6 | 0.00 | 0.00 | 0.00 | 75 | 1023.7 |
| 20260831175525 | 80 | 309 | 5.2 | 9.6 | 0.00 | 0.00 | 0.00 | 70 | 1023.7 |
| 20260831175026 | 83 | 295 | 3.5 | 6.1 | 0.00 | 0.00 | 0.00 | 68 | 1023.8 |
| 20260831174525 | 85 | 0 | 0.0 | 0.0 | 0.00 | 0.00 | 0.00 | 64 | 1023.9 |
| 20260831173805 | 85 | 0 | 0.0 | 3.5 | 0.00 | 0.00 | 0.00 | 63 | 1023.9 |
| 20260831173305 | 85 | 295 | 0.9 | 3.5 | 0.00 | 0.00 | 0.00 | 62 | 1023.8 |
| 20260831172805 | 85 | 295 | 1.7 | 3.5 | 0.00 | 0.00 | 0.00 | 59 | 1023.9 |
| 20260831172308 | 85 | 295 | 0.9 | 3.5 | 0.00 | 0.00 | 0.00 | 64 | 1023.8 |
| 20260831171811 | 84 | 295 | 1.7 | 3.5 | 0.00 | 0.00 | 0.00 | 63 | 1023.9 |
| 20260831171310 | 84 | 295 | 1.7 | 3.5 | 0.00 | 0.00 | 0.00 | 65 | 1023.9 |
| 20260831170805 | 84 | 0 | 0.0 | 3.5 | 0.00 | 0.00 | 0.00 | 69 | 1023.8 |
| 20260831170305 | 84 | 0 | 0.0 | 6.1 | 0.00 | 0.00 | 0.00 | 67 | 1023.8 |
| 20260831165805 | 84 | 295 | 0.9 | 6.1 | 0.00 | 0.00 | 0.00 | 66 | 1023.8 |
| 20260831165315 | 84 | 0 | 0.0 | 3.5 | 0.00 | 0.00 | 0.00 | 68 | 1023.8 |
| 20260831164805 | 84 | 0 | 0.0 | 3.5 | 0.00 | 0.00 | 0.00 | 68 | 1023.9 |
| 20260831164447 | 84 | 0 | 0.0 | 3.5 | 0.00 | 0.00 | 0.00 | 68 | 1024.0 |
| 20260831164305 | 84 | 0 | 0.0 | 3.5 | 0.00 | 0.00 | 0.00 | 68 | 1024.0 |
| 20260831163805 | 84 | 0 | 0.0 | 3.5 | 0.00 | 0.00 | 0.00 | 69 | 1024.1 |
| 20260831163305 | 84 | 0 | 0.0 | 6.1 | 0.00 | 0.00 | 0.00 | 70 | 1024.1 |
| 20260831162805 | 83 | 295 | 0.9 | 6.1 | 0.00 | 0.00 | 0.00 | 70 | 1024.2 |
| 20260831162306 | 83 | 295 | 1.7 | 6.1 | 0.00 | 0.00 | 0.00 | 69 | 1024.2 |
| 20260831161805 | 84 | 295 | 0.9 | 6.1 | 0.00 | 0.00 | 0.00 | 69 | 1024.2 |
| 20260831161305 | 84 | 0 | 0.0 | 3.5 | 0.00 | 0.00 | 0.00 | 68 | 1024.3 |
| 20260831160805 | 83 | 0 | 0.0 | 3.5 | 0.00 | 0.00 | 0.00 | 67 | 1024.2 |
| 20260831160305 | 84 | 0 | 0.0 | 0.9 | 0.00 | 0.00 | 0.00 | 71 | 1024.1 |
| 20260831155845 | 83 | 0 | 0.0 | 2.6 | 0.00 | 0.00 | 0.00 | 70 | 1024.2 |
| 20260831155805 | 83 | 0 | 0.0 | 2.6 | 0.00 | 0.00 | 0.00 | 70 | 1024.2 |
| 20260831155306 | 83 | 0 | 0.0 | 2.6 | 0.00 | 0.00 | 0.00 | 69 | 1024.3 |
| 20260831154806 | 83 | 0 | 0.0 | 0.0 | 0.00 | 0.00 | 0.00 | 68 | 1024.2 |
| 20260831154305 | 82 | 0 | 0.0 | 2.6 | 0.00 | 0.00 | 0.00 | 72 | 1024.3 |
| 20260831153805 | 82 | 0 | 0.0 | 2.6 | 0.00 | 0.00 | 0.00 | 75 | 1024.3 |
| 20260831153305 | 81 | 0 | 0.0 | 1.7 | 0.00 | 0.00 | 0.00 | 76 | 1024.3 |
| 20260831152805 | 81 | 0 | 0.0 | 3.5 | 0.00 | 0.00 | 0.00 | 75 | 1024.3 |
| 20260831152308 | 80 | 295 | 1.7 | 4.3 | 0.00 | 0.00 | 0.00 | 75 | 1024.3 |
| 20260831151805 | 80 | 295 | 0.9 | 4.3 | 0.00 | 0.00 | 0.00 | 75 | 1024.3 |
| 20260831151307 | 80 | 0 | 0.0 | 3.5 | 0.00 | 0.00 | 0.00 | 76 | 1024.3 |
| 20260831150806 | 80 | 0 | 0.0 | 3.5 | 0.00 | 0.00 | 0.00 | 75 | 1024.4 |
| 20260831150307 | 80 | 0 | 0.0 | 2.6 | 0.00 | 0.00 | 0.00 | 77 | 1024.3 |
| 20260831145807 | 80 | 0 | 0.0 | 3.5 | 0.00 | 0.00 | 0.00 | 76 | 1024.3 |
| 20260831145307 | 79 | 0 | 0.0 | 3.5 | 0.00 | 0.00 | 0.00 | 75 | 1024.3 |
| 20260831144805 | 80 | 0 | 0.0 | 3.5 | 0.00 | 0.00 | 0.00 | 75 | 1024.3 |
| 20260831144305 | 80 | 295 | 0.9 | 7.0 | 0.00 | 0.00 | 0.00 | 75 | 1024.3 |
| 20260831143805 | 80 | 0 | 0.0 | 7.0 | 0.00 | 0.00 | 0.00 | 76 | 1024.3 |
| 20260831143305 | 80 | 0 | 0.0 | 2.6 | 0.00 | 0.00 | 0.00 | 76 | 1024.3 |
| 20260831142807 | 79 | 0 | 0.0 | 1.7 | 0.00 | 0.00 | 0.00 | 76 | 1024.2 |
| 20260831142306 | 79 | 0 | 0.0 | 0.0 | 0.00 | 0.00 | 0.00 | 79 | 1024.2 |
| 20260831141804 | 78 | 0 | 0.0 | 2.6 | 0.00 | 0.00 | 0.00 | 80 | 1024.2 |
| 20260831141308 | 77 | 0 | 0.0 | 2.6 | 0.00 | 0.00 | 0.00 | 81 | 1024.2 |
| 20260831140805 | 77 | 0 | 0.0 | 3.5 | 0.00 | 0.00 | 0.00 | 81 | 1024.1 |
| 20260831140307 | 76 | 0 | 0.0 | 3.5 | 0.00 | 0.00 | 0.00 | 82 | 1024.0 |
| 20260831135807 | 77 | 0 | 0.0 | 3.5 | 0.00 | 0.00 | 0.00 | 82 | 1024.0 |
| 20260831135315 | 77 | 0 | 0.0 | 2.6 | 0.00 | 0.00 | 0.00 | 81 | 1024.1 |
| 20260831134809 | 77 | 0 | 0.0 | 2.6 | 0.00 | 0.00 | 0.00 | 81 | 1024.0 |
| 20260831134306 | 76 | 0 | 0.0 | 2.6 | 0.00 | 0.00 | 0.00 | 81 | 1024.0 |
| 20260831133806 | 76 | 0 | 0.0 | 0.9 | 0.00 | 0.00 | 0.00 | 82 | 1024.1 |
| 20260831133305 | 76 | 0 | 0.0 | 1.7 | 0.00 | 0.00 | 0.00 | 83 | 1024.1 |
| 20260831132806 | 76 | 0 | 0.0 | 1.7 | 0.00 | 0.00 | 0.00 | 82 | 1024.1 |
| 20260831132307 | 76 | 0 | 0.0 | 3.5 | 0.00 | 0.00 | 0.00 | 82 | 1024.1 |
| 20260831131805 | 76 | 0 | 0.0 | 3.5 | 0.00 | 0.00 | 0.00 | 81 | 1024.1 |
| 20260831131305 | 76 | 0 | 0.0 | 3.5 | 0.00 | 0.00 | 0.00 | 82 | 1024.1 |
| 20260831130806 | 75 | 0 | 0.0 | 2.6 | 0.00 | 0.00 | 0.00 | 83 | 1024.1 |
| 20260831130304 | 75 | 0 | 0.0 | 1.7 | 0.00 | 0.00 | 0.00 | 84 | 1024.1 |
| 20260831125804 | 74 | 0 | 0.0 | 3.5 | 0.00 | 0.00 | 0.00 | 84 | 1024.0 |
| 20260831125306 | 74 | 0 | 0.0 | 4.3 | 0.00 | 0.00 | 0.00 | 85 | 1024.1 |
| 20260831124805 | 74 | 0 | 0.0 | 4.3 | 0.00 | 0.00 | 0.00 | 84 | 1024.1 |
| 20260831124305 | 74 | 0 | 0.0 | 4.3 | 0.00 | 0.00 | 0.00 | 84 | 1024.1 |
| 20260831123806 | 74 | 0 | 0.0 | 4.3 | 0.00 | 0.00 | 0.00 | 84 | 1024.0 |
| 20260831123304 | 74 | 0 | 0.0 | 4.3 | 0.00 | 0.00 | 0.00 | 84 | 1024.0 |
| 20260831122809 | 74 | 0 | 0.0 | 4.3 | 0.00 | 0.00 | 0.00 | 83 | 1024.1 |
| 20260831122306 | 74 | 295 | 0.9 | 4.3 | 0.00 | 0.00 | 0.00 | 84 | 1024.0 |
| 20260831121504 | 74 | 0 | 0.0 | 4.3 | 0.00 | 0.00 | 0.00 | 84 | 1024.0 |
| 20260831121004 | 74 | 0 | 0.0 | 4.3 | 0.00 | 0.00 | 0.00 | 84 | 1023.9 |
| 20260831120504 | 73 | 0 | 0.0 | 2.6 | 0.00 | 0.00 | 0.00 | 85 | 1023.8 |
| 20260831120006 | 73 | 0 | 0.0 | 8.7 | 0.00 | 0.00 | 0.00 | 86 | 1023.9 |
| 20260831115504 | 73 | 0 | 0.0 | 8.7 | 0.00 | 0.00 | 0.00 | 87 | 1023.9 |
| 20260831115004 | 72 | 0 | 0.0 | 2.6 | 0.00 | 0.00 | 0.00 | 88 | 1023.9 |
| 20260831114421 | 72 | 0 | 0.0 | 3.5 | 0.00 | 0.00 | 0.00 | 89 | 1023.9 |
| 20260831113922 | 72 | 0 | 0.0 | 3.5 | 0.00 | 0.00 | 0.00 | 88 | 1024.0 |
| 20260831113425 | 73 | 0 | 0.0 | 2.6 | 0.00 | 0.00 | 0.00 | 87 | 1023.9 |
| 20260831112921 | 73 | 0 | 0.0 | 0.9 | 0.00 | 0.00 | 0.00 | 87 | 1023.9 |
| 20260831112421 | 73 | 0 | 0.0 | 0.9 | 0.00 | 0.00 | 0.00 | 86 | 1023.9 |
| 20260831111924 | 73 | 0 | 0.0 | 2.6 | 0.00 | 0.00 | 0.00 | 86 | 1023.8 |
| 20260831111424 | 73 | 0 | 0.0 | 4.3 | 0.00 | 0.00 | 0.00 | 85 | 1023.8 |
| 20260831110921 | 73 | 0 | 0.0 | 4.3 | 0.00 | 0.00 | 0.00 | 85 | 1023.7 |
| 20260831110421 | 73 | 0 | 0.0 | 3.5 | 0.00 | 0.00 | 0.00 | 86 | 1023.7 |
| 20260831105931 | 73 | 0 | 0.0 | 7.8 | 0.00 | 0.00 | 0.00 | 85 | 1023.5 |
| 20260831105422 | 73 | 300 | 0.9 | 7.8 | 0.00 | 0.00 | 0.00 | 85 | 1023.6 |
| 20260831104922 | 73 | 0 | 0.0 | 3.5 | 0.00 | 0.00 | 0.00 | 85 | 1023.5 |
| 20260831104424 | 73 | 0 | 0.0 | 3.5 | 0.00 | 0.00 | 0.00 | 85 | 1023.5 |
| 20260831103921 | 72 | 0 | 0.0 | 3.5 | 0.00 | 0.00 | 0.00 | 85 | 1023.5 |
| 20260831103423 | 72 | 0 | 0.0 | 3.5 | 0.00 | 0.00 | 0.00 | 85 | 1023.5 |
| 20260831102922 | 72 | 0 | 0.0 | 4.3 | 0.00 | 0.00 | 0.00 | 85 | 1023.5 |
| 20260831102421 | 72 | 0 | 0.0 | 4.3 | 0.00 | 0.00 | 0.00 | 85 | 1023.5 |
| 20260831101921 | 72 | 0 | 0.0 | 2.6 | 0.00 | 0.00 | 0.00 | 86 | 1023.4 |
| 20260831101421 | 72 | 0 | 0.0 | 2.6 | 0.00 | 0.00 | 0.00 | 87 | 1023.3 |
| 20260831100924 | 71 | 0 | 0.0 | 1.7 | 0.00 | 0.00 | 0.00 | 87 | 1023.3 |
| 20260831100421 | 71 | 0 | 0.0 | 2.6 | 0.00 | 0.00 | 0.00 | 88 | 1023.3 |
| 20260831095922 | 71 | 0 | 0.0 | 2.6 | 0.00 | 0.00 | 0.00 | 89 | 1023.3 |
| 20260831095422 | 71 | 0 | 0.0 | 1.7 | 0.00 | 0.00 | 0.00 | 90 | 1023.2 |
| 20260831094926 | 71 | 0 | 0.0 | 1.7 | 0.00 | 0.00 | 0.00 | 90 | 1023.2 |
| 20260831094421 | 72 | 0 | 0.0 | 1.7 | 0.00 | 0.00 | 0.00 | 88 | 1023.2 |
| 20260831093921 | 73 | 0 | 0.0 | 1.7 | 0.00 | 0.00 | 0.00 | 85 | 1023.2 |
| 20260831093422 | 73 | 0 | 0.0 | 2.6 | 0.00 | 0.00 | 0.00 | 83 | 1023.2 |
| 20260831092921 | 73 | 0 | 0.0 | 2.6 | 0.00 | 0.00 | 0.00 | 83 | 1023.1 |
| 20260831092423 | 73 | 0 | 0.0 | 2.6 | 0.00 | 0.00 | 0.00 | 84 | 1023.1 |
| 20260831091921 | 73 | 0 | 0.0 | 2.6 | 0.00 | 0.00 | 0.00 | 84 | 1023.1 |